Tracking 29892 objects as of 21-Nov-2024
HD Live streaming from Space Station
objects crossing your sky now

COSMOS 1275 DEB

Track COSMOS 1275 DEB now!
10-day predictions


NORAD ID: 17642
Int'l Code: 1981-053LQ
Perigee: 751.1 km
Apogee: 804.6 km
Inclination: 82.9 °
Period: 100.3 minutes
Semi major axis: 7148 km
RCS: 0.0092 m2 (small)
Launch date: June 4, 1981
Source: Commonwealth of Independent States (former USSR) (CIS)
Launch site: PLESETSK MISSILE AND SPACE COMPLEX (PKMTR)

Note: This is SATELLITE DEBRIS
Your satellite tracking list
Your tracking list is empty




NASA's NSSDC Master Catalog

Two Line Element Set (TLE):
1 17642U 81053LM  24325.90802994  .00007072  00000-0  23940-2 0  9990
2 17642  82.8643 229.8051 0037407  84.4871 276.0583 14.36309335 54280
Source of the keplerian elements: AFSPC